Weather Roundup
Issued by NWS

Home | Current Version | Previous Version | Graphics & Text | Print | Product List | Glossary Off
Versions: 1 2 3 4 5 6 7 8 9 10 11 12 13 14 15 16 17 18 19 20 21 22 23 24 25 26 27 28 29 30 31 32 33 34 35 36 37 38 39 40 41 42 43 44 45 46 47 48 49 50

783
NZUS93 KARX 260459
HRRWXR

CURRENT HOURLY OBSERVATIONS ACROSS
MUCH OF THE UPPER MISSISSIPPI VALLEY
NATIONAL WEATHER SERVICE LA CROSSE WI
1200 AM CDT MON SEP 26 2016


...SOUTHEAST MINNESOTA...


CITY           SKY/WX    TMP DP  RH WIND       PRES   REMARKS
ROCHESTER      CLEAR     53  48  83 W9        30.02S
ROCHESTER/MAYO FAIR      54  47  77 W12G17    30.01S
WINONA         CLEAR     57  48  72 W7        29.99S
AUSTIN         CLEAR     54  45  71 W9        30.04S
ALBERT LEA     CLEAR     54  45  71 W6        30.05F
DODGE CENTER   CLEAR     52  46  82 W9        30.02S
PRESTON        CLEAR     52  48  85 W9        30.03S
OWATONNA       CLEAR     54  43  66 W9        30.02F
FARIBAULT      CLEAR     55  45  67 W13       30.02S
$$

...ELSEWHERE IN MINNESOTA...


CITY           SKY/WX    TMP DP  RH WIND       PRES   REMARKS
MINNEAPOLIS    CLEAR     56  44  64 W13       29.98F
INTNL FALLS    LGT RAIN  52  50  93 W14G22    29.67S
DULUTH         CLOUDY    51  48  89 W22G28    29.77F
RED WING       CLEAR     54  48  82 W5        29.97S
REDWOOD FALLS  CLEAR     54  38  54 W16       30.04F
MANKATO        NOT AVBL
WORTHINGTON    CLEAR     48  40  73 W10       30.14S
FAIRMONT       CLEAR     55  40  56 W12       30.09S
$$

...SOUTHWEST WISCONSIN...


CITY           SKY/WX    TMP DP  RH WIND       PRES   REMARKS
LA CROSSE      PTCLDY    60  50  69 W14       29.98S
PRAIRIE DU CHI MOCLDY    59  49  70 W10       30.02S
BOSCOBEL       CLOUDY    61  51  70 VRB7      30.01S
LONE ROCK      NOT AVBL
PLATTEVILLE    CLOUDY    60  53  78 W10       30.02S
FORT MC COY    CLOUDY    58  50  75 W10       29.98R
MAUSTON-NEW LI CLOUDY    59  53  79 W13       29.94F
VIROQUA        FAIR      56  50  81 W8        30.00S
WIS DELLS      NOT AVBL
$$

...ELSEWHERE IN WISCONSIN...


CITY           SKY/WX    TMP DP  RH WIND       PRES   REMARKS
MILWAUKEE      LGT RAIN  64  56  75 W12       29.91S
MADISON        CLOUDY    61  52  72 W7        29.95R
GREEN BAY      MOCLDY    62  58  86 SW9       29.85S
EAU CLAIRE     NOT AVBL
BLACK RVR FLS  FAIR      58  47  67 W10G18    29.95S
MEDFORD        CLOUDY    53  53 100 W9        29.88S
WAUSAU         CLOUDY    55  52  89 W12G22    29.86F
WIS RAPIDS     CLOUDY    55  52  89 W10       29.93S
MARSHFIELD     CLOUDY    56  49  77 W14G21    29.89F
RICE LAKE      NOT AVBL
$$

...NORTHEAST IOWA...


CITY           SKY/WX    TMP DP  RH WIND       PRES   REMARKS
WATERLOO       MOCLDY    57  49  74 W12       30.07S
DUBUQUE        CLOUDY    58  50  75 W14       30.04S
DECORAH        CLEAR     55  52  88 VRB7G13   30.02F
MASON CITY     CLEAR     52  44  74 W9        30.09S
CHARLES CITY   CLEAR     54  50  87 W7        30.07S
OELWEIN        CLEAR     54  52  94 W7        30.07S
$$

...ELSEWHERE IN IOWA...


CITY           SKY/WX    TMP DP  RH WIND       PRES   REMARKS
DES MOINES     CLEAR     58  47  66 NW10      30.13S
IOWA CITY      CLOUDY    60  51  72 W8        30.10S
FORT DODGE     CLEAR     54  43  66 W6        30.14R
MARSHALLTOWN   CLEAR     53  50  89 W8        30.10S
CEDAR RAPIDS   CLOUDY    58  52  80 W13       30.07F
$$

...NORTHERN ILLINOIS...


CITY           SKY/WX    TMP DP  RH WIND       PRES   REMARKS
CHICAGO-OHARE  CLOUDY    66  52  60 W13G22    29.95S
CHICAGO-MIDWAY CLOUDY    69  50  50 W17       29.96R
MOLINE         CLOUDY    63  50  62 W14G20    30.06S
ROCKFORD       CLOUDY    63  53  70 W12       30.00S
PEORIA         CLOUDY    65  51  60 W9        30.05R
$$

NOTE: "FAIR" INDICATES FEW OR NO CLOUDS BELOW 12,000 FEET WITH NO
SIGNIFICANT WEATHER AND/OR OBSTRUCTIONS TO VISIBILITY. WIND
SPEEDS ARE IN MILES-PER-HOUR.




USA.gov is the U.S. government's official web portal to all federal, state and local government web resources and services.